This demonstration page uses our WeatherBlox Daily Observations layout. Learn more.

Left ArrowRight Arrow

39.92423, -83.80882

Hourly Observations for November 29, 2022

Temp ( °F °C ) Dew Point ( °F °C ) Humidity (%) Winds ( mph kmh ) Pressure ( in mb ) Visibility ( mi km ) Precip ( " mm )
12:56 am 00:56 Cloudy with Haze 43 6.1 N/A N/A SSE 6 9 30.05 1018 4 6 0.00 0.00
1:56 am 01:56 Cloudy with Haze 43 6.1 N/A N/A S 6 9 30.06 1018 4 6 0.00 0.00
2:56 am 02:56 Cloudy with Haze 43 6.1 N/A N/A SSE 6 9 30.06 1018 4 6 0.00 0.00
3:56 am 03:56 Cloudy with Haze 43 6.1 N/A N/A SE 7 11 30.06 1018 4 6 0.00 0.00
4:56 am 04:56 Cloudy with Haze 43 6.1 N/A N/A SSE 6 9 30.07 1018 5 8 0.00 0.00
5:56 am 05:56 Cloudy with Haze 42 5.6 N/A N/A SE 8 13 30.06 1018 5 8 0.00 0.00
6:56 am 06:56 Cloudy with Haze 43 6.1 N/A N/A SE 9 15 30.07 1018 6 10 0.00 0.00
7:56 am 07:56 Cloudy with Haze 43 6.1 N/A N/A SSE 10 17 30.08 1019 6 10 0.00 0.00
8:56 am 08:56 Cloudy 44 6.7 N/A N/A SSE 8 13 30.08 1018 8 13 0.00 0.00
9:25 am 09:25 Cloudy with Mist and Fog 45 7 45 7 100 100 SSE 8 13 30.07 1018 1 2 0.01 0.25
9:32 am 09:32 Cloudy with Mist and Fog 46 8 45 7 93 93 S 9 15 30.06 1018 2 3 0.01 0.25
9:56 am 09:56 Mostly Cloudy 47 8.3 46 7.8 97 97 SSE 10 17 30.05 1018 10 16 0.01 0.25
10:56 am 10:56 Sunny 50 10 45 7.2 83 83 SSE 13 20 30.03 1017 10 16 0.00 0.00
11:56 am 11:56 Sunny 52 11.1 45 7.2 77 77 SSE 15 24 29.99 1016 10 16 0.00 0.00
12:56 pm 12:56 Sunny 55 12.8 44 6.7 66 66 SSE 18 30 29.95 1014 10 16 0.00 0.00
1:56 pm 13:56 Sunny 56 13.3 45 7.2 66 66 S 15 24 29.90 1013 10 16 0.00 0.00
2:56 pm 14:56 Sunny 56 13.3 45 7.2 66 66 SSE 12 19 29.88 1012 10 16 0.00 0.00
3:56 pm 15:56 Sunny 56 13.3 45 7.2 66 66 undefined N/A 29.88 1012 10 16 0.00 0.00
4:56 pm 16:56 Sunny 55 12.8 46 7.8 72 72 SSE 14 22 29.87 1012 10 16 0.00 0.00
5:56 pm 17:56 Clear 54 12.2 46 7.8 74 74 SSE 13 20 29.84 1011 10 16 0.00 0.00
6:56 pm 18:56 Partly Cloudy 53 11.7 45 7.2 74 74 SSE 12 19 29.80 1009 10 16 0.00 0.00
7:56 pm 19:56 Clear 53 11.7 43 6.1 68 68 SSE 15 24 29.78 1008 10 16 0.00 0.00
8:56 pm 20:56 Mostly Cloudy 54 12.2 42 5.6 64 64 S 15 24 29.74 1007 10 16 0.00 0.00
9:56 pm 21:56 Cloudy 55 12.8 42 5.6 62 62 S 13 20 29.72 1007 10 16 0.00 0.00
10:56 pm 22:56 Cloudy 55 12.8 44 6.7 66 66 S 13 20 29.71 1006 10 16 0.00 0.00
11:53 pm 23:53 Cloudy 55 13 50 10 82 82 S 14 22 29.70 1006 10 16 0.00 0.00
11:56 pm 23:56 Cloudy 55 12.8 51 10.6 86 86 S 14 22 29.70 1006 10 16 0.00 0.00

Powered by AerisWeather